[[{"header":{"parameterUnit":"m.s-1","parameterCategory":1,"la1":30.2991,"la2":30.254,"lo1":-89.0895,"lo2":-89.0444,"dy":0.0017,"dx":0.0017,"nx":28,"ny":28,"refTime":"2023-09-22T03:00:00:Z","depth":0,"parameterNumber":2,"parameterNumberName":"U-component_of_WINDS"},"data":[0,0,0,0,0,0,0,0,0,0,0,0,0,0,0,0,0,0,0,0,0,0,0,0,0,0,0,0,0,0,0,0,0,0,0,0,0,0,0,0,0,0,0,0,0,0,0,0,0,0,0,0,0,0,0,0,0,0,-2.3824,-2.3823,0,-2.381,-2.381,-2.3809,-2.3711,-2.3709,-2.3706,-2.3704,-2.3693,-2.3695,-2.3697,0,0,0,0,0,0,0,0,0,0,0,0,0,-2.3771,-2.3772,-2.3824,-2.3823,-2.3823,-2.381,-2.381,-2.3809,-2.3711,-2.3708,-2.3705,-2.3703,-2.3692,-2.3695,-2.3697,0,0,0,0,0,0,0,0,0,0,0,0,0,-2.3779,-2.3773,-2.3824,-2.3773,-2.3768,-2.381,-2.381,-2.3809,-2.3712,-2.3708,-2.3705,-2.3701,-2.3691,-2.3694,-2.3697,-2.3788,0,0,-2.3706,-2.3707,0,0,0,0,0,0,0,0,-2.3779,-2.3781,-2.378,-2.3776,-2.3771,-2.3758,-2.3787,-2.3802,-2.3713,-2.3733,-2.3704,-2.37,-2.3718,-2.3718,-2.3724,-2.3787,-2.3787,-2.3706,-2.3708,-2.371,-2.371,0,0,0,0,0,0,0,-2.3778,-2.3781,-2.3818,-2.3781,-2.3775,-2.3752,-2.3749,-2.3789,-2.3746,-2.3731,-2.3724,-2.3724,-2.3715,-2.3721,-2.3723,-2.3787,-2.3706,-2.3709,-2.3711,-2.3712,-2.3928,-2.3932,0,0,0,0,0,0,-2.3784,-2.3781,-2.3819,-2.3818,-2.3766,-2.3756,-2.3753,-2.3766,-2.3745,-2.3739,-2.3727,-2.3719,-2.3718,-2.3719,-2.3722,-2.3829,-2.3709,-2.3712,-2.3714,-2.3924,-2.3929,-2.3933,0,0,0,0,0,0,-2.3784,-2.3789,-2.3819,-2.3798,-2.38,-2.3761,-2.3776,-2.3768,-2.3774,-2.3742,-2.3734,-2.3741,-2.3715,-2.3718,-2.3773,-2.3827,-2.3714,-2.3716,-2.3919,-2.3926,-2.3931,-2.4042,0,0,0,0,0,0,-2.3782,-2.3789,-2.3821,-2.3799,-2.3801,-2.3869,-2.378,-2.377,-2.3779,-2.3769,-2.3753,-2.3747,-2.3713,-2.3769,-2.3776,-2.3829,-2.3719,-2.3914,-2.3922,-2.3929,-2.4033,-2.4051,-2.4066,0,0,0,0,0,-2.3781,-2.3853,-2.3823,-2.3828,-2.3841,-2.3872,-2.3873,-2.3831,-2.3784,-2.3817,-2.3797,-2.3748,-2.382,-2.3775,-2.3782,-2.3837,-2.3911,-2.392,-2.3929,-2.4026,-2.4048,-2.4066,0,0,0,0,0,0,-2.3883,-2.3849,-2.3816,-2.3882,-2.3881,-2.3855,-2.3896,-2.3855,-2.3867,-2.3857,-2.3805,-2.3803,-2.3866,-2.3857,-2.3808,-2.3926,-2.3857,-2.3868,-2.3929,-2.3949,-2.3965,-2.3966,-2.3721,0,0,0,0,0,-2.3913,-2.394,-2.3909,-2.3971,-2.3972,-2.3935,-2.3947,-2.3914,-2.3911,-2.391,-2.3893,-2.3893,-2.3916,-2.3932,-2.3951,-2.4032,-2.4029,-2.4074,-2.409,-2.4104,-2.4114,-2.4159,-2.4179,-2.3963,-2.3962,-2.3962,0,0,-2.3976,-2.3961,-2.398,-2.3992,-2.3986,-2.4017,-2.3935,-2.397,-2.3993,-2.3915,-2.3966,-2.3955,-2.3952,-2.4021,-2.4051,-2.4015,-2.4173,-2.4115,-2.4126,-2.4129,-2.417,-2.4191,-2.4209,-2.3969,-2.3968,-2.3967,0,0,-2.4105,-2.4096,-2.4148,-2.4145,-2.4138,-2.4113,-2.4127,-2.4108,-2.4097,-2.4148,-2.4091,-2.4119,-2.4159,-2.4159,-2.4165,-2.43,-2.4256,-2.4308,-2.4394,-2.4438,-2.4455,-2.447,-2.452,-2.4539,-2.4318,-2.4318,-2.4318,0,-2.4184,-2.4227,-2.418,-2.422,-2.4228,-2.4159,-2.4213,-2.4213,-2.4214,-2.4222,-2.4182,-2.4233,-2.4226,-2.4295,-2.4329,-2.4335,-2.435,-2.4309,-2.4456,-2.4471,-2.4484,-2.4531,-2.455,-2.4325,-2.4324,-2.4323,-2.4323,0,-2.4325,-2.4356,-2.4399,-2.4401,-2.4414,-2.4461,-2.4423,-2.4442,-2.4411,-2.4391,-2.4445,-2.4435,-2.4452,-2.4466,-2.4434,-2.4533,-2.4511,-2.4465,-2.4395,-2.4512,-2.4556,-2.4573,-2.4334,-2.4332,-2.433,-2.4328,0,0,-2.4516,-2.4495,-2.4511,-2.4513,-2.4502,-2.4526,-2.4572,-2.4588,-2.4607,-2.4611,-2.4649,-2.4686,-2.4644,-2.4651,-2.4619,-2.4659,-2.4769,-2.4608,-2.4607,-2.464,-2.488,-2.4915,-2.4936,-2.4741,-2.4744,-2.4746,-2.488,0,-2.4642,-2.4716,-2.4677,-2.4758,-2.4787,-2.4725,-2.4765,-2.4764,-2.4748,-2.4773,-2.4755,-2.4783,-2.4725,-2.4729,-2.4765,-2.4748,-2.4817,-2.4738,-2.4777,-2.4779,-2.478,-2.4959,-2.4995,-2.5122,-2.4897,-2.49,-2.4902,0,-2.4798,-2.4809,-2.4892,-2.4879,-2.489,-2.4927,-2.494,-2.4964,-2.4963,-2.4949,-2.4959,-2.4919,-2.4966,-2.4897,-2.4961,-2.4909,-2.4923,-2.4918,-2.4922,-2.4924,-2.4848,-2.4967,-2.5161,-2.5181,-2.4928,-2.4926,-2.4924,0,-2.4931,-2.4967,-2.5022,-2.5025,-2.5011,-2.5038,-2.5034,-2.503,-2.5044,-2.5056,-2.5065,-2.5084,-2.5094,-2.5111,-2.5079,-2.5031,-2.5149,-2.5077,-2.514,-2.5141,-2.5167,-2.5166,-2.5368,-2.5176,-2.5176,-2.5175,-2.5175,0,-2.5076,-2.513,-2.5082,-2.5116,-2.5175,-2.5132,-2.5193,-2.5182,-2.518,-2.5212,-2.516,-2.5192,-2.5148,-2.5177,-2.5152,-2.5211,-2.5216,-2.5207,-2.52,-2.5212,-2.5213,-2.522,-2.5211,-2.518,-2.5179,-2.5178,-2.5177,0,-2.5234,-2.5203,-2.526,-2.5243,-2.524,-2.5285,-2.5271,-2.5304,-2.5285,-2.5327,-2.5335,-2.5306,-2.5338,-2.5308,-2.5337,-2.5321,-2.54,-2.538,-2.54,-2.5395,-2.546,-2.5455,-2.5674,-2.5701,-2.5492,-2.5494,-2.5495,0,-2.5328,-2.5368,-2.5356,-2.5374,-2.5373,-2.5402,-2.5416,-2.5376,-2.5393,-2.5398,-2.543,-2.5457,-2.5477,-2.5531,-2.5514,-2.5537,-2.5518,-2.5593,-2.5521,-2.5533,-2.5521,-2.5519,-2.5524,-2.5608,-2.561,-2.5612,-2.5614,0,-2.5499,-2.5483,-2.5504,-2.5522,-2.554,-2.5552,-2.556,-2.5579,-2.5538,-2.556,-2.5592,-2.5607,-2.5638,-2.5667,-2.5686,-2.5683,-2.5644,-2.5637,-2.5653,-2.5666,-2.5676,-2.5673,-2.5441,-2.5632,-2.563,-2.5629,-2.5628,-2.5627,-2.5629,-2.5662,-2.566,-2.5687,-2.5689,-2.5699,-2.5729,-2.5715,-2.574,-2.5762,-2.5738,-2.5777,-2.5779,-2.58,-2.5803,-2.5835,-2.5804,-2.5827,-2.5833,-2.5839,-2.5849,-2.5672,-2.5839,-2.5838,-2.5837,-2.5837,-2.5837,0,-2.5798,-2.5794,-2.5819,-2.5833,-2.5855,-2.5815,-2.5823,-2.5844,-2.5879,-2.5884,-2.5905,-2.5943,-2.5972,-2.5959,-2.5984,-2.6012,-2.5995,-2.602,-2.6018,-2.6019,-2.5875,-2.5859,-2.6034,-2.6034,-2.6034,-2.6034,-2.6034,-2.6034,-2.5889,-2.5945,-2.5929,-2.5987,-2.5983,-2.6021,-2.6029,-2.6039,-2.6043,-2.6088,-2.6111,-2.6102,-2.6101,-2.6126,-2.6152,-2.6147,-2.616,-2.6193,-2.6182,-2.6048,-2.6028,-2.601,-2.5995,-2.6195,-2.6196,-2.6323,-2.6324,-2.6325]},{"header":{"parameterUnit":"m.s-1","parameterCategory":1,"la1":30.2991,"la2":30.254,"lo1":-89.0895,"lo2":-89.0444,"dy":0.0017,"dx":0.0017,"nx":28,"ny":28,"refTime":"2023-09-22T03:00:00:Z","depth":0,"parameterNumber":3,"parameterNumberName":"V-component_of_WINDS"},"data":[0,0,0,0,0,0,0,0,0,0,0,0,0,0,0,0,0,0,0,0,0,0,0,0,0,0,0,0,0,0,0,0,0,0,0,0,0,0,0,0,0,0,0,0,0,0,0,0,0,0,0,0,0,0,0,0,0,0,2.6981,2.6981,0,2.6987,2.6987,2.6987,2.7032,2.7033,2.7034,2.7035,2.7036,2.7035,2.7034,0,0,0,0,0,0,0,0,0,0,0,0,0,2.7003,2.7002,2.6981,2.6981,2.6981,2.6987,2.6987,2.6987,2.7032,2.7033,2.7034,2.7036,2.7036,2.7035,2.7034,0,0,0,0,0,0,0,0,0,0,0,0,0,2.7,2.7002,2.6981,2.7004,2.7006,2.6987,2.6987,2.6987,2.7031,2.7033,2.7035,2.7036,2.7037,2.7035,2.7034,2.6991,0,0,2.7029,2.7028,0,0,0,0,0,0,0,0,2.7,2.6999,2.7001,2.7002,2.7005,2.7011,2.6995,2.6989,2.7031,2.7022,2.7035,2.7037,2.7026,2.7025,2.7023,2.6991,2.6991,2.7029,2.7028,2.7027,2.7027,0,0,0,0,0,0,0,2.7,2.6999,2.6983,2.7001,2.7003,2.7013,2.7014,2.6994,2.7014,2.7023,2.7026,2.7026,2.7027,2.7024,2.7023,2.6991,2.7029,2.7028,2.7027,2.7026,2.6925,2.6923,0,0,0,0,0,0,2.6998,2.6999,2.6983,2.6984,2.7006,2.7011,2.7012,2.7007,2.7015,2.7017,2.7025,2.7028,2.7026,2.7025,2.7023,2.6973,2.7027,2.7026,2.7025,2.6926,2.6924,2.6922,0,0,0,0,0,0,2.6998,2.6996,2.6983,2.6992,2.6991,2.7009,2.7002,2.7006,2.7003,2.7016,2.702,2.7018,2.7027,2.7025,2.6999,2.6973,2.7025,2.7024,2.6929,2.6926,2.6923,2.6872,0,0,0,0,0,0,2.6998,2.6996,2.6981,2.6991,2.699,2.696,2.7001,2.7005,2.7001,2.7006,2.7011,2.7013,2.7028,2.7001,2.6998,2.6972,2.7023,2.6931,2.6927,2.6924,2.6876,2.6868,2.6861,0,0,0,0,0,2.6999,2.6965,2.698,2.6977,2.6972,2.6958,2.6958,2.6977,2.6999,2.6983,2.6992,2.7013,2.6978,2.6998,2.6994,2.6968,2.6932,2.6928,2.6924,2.688,2.687,2.6862,0,0,0,0,0,0,2.6949,2.6967,2.6983,2.6952,2.6954,2.6966,2.6947,2.6966,2.696,2.6964,2.6987,2.6988,2.6958,2.6961,2.6983,2.6927,2.6959,2.6954,2.6926,2.6917,2.6909,2.6908,2.7022,0,0,0,0,0,2.6935,2.6923,2.6939,2.691,2.691,2.6928,2.6923,2.6938,2.694,2.694,2.6947,2.6946,2.6935,2.6926,2.6917,2.6878,2.6879,2.6858,2.6851,2.6845,2.6839,2.6818,2.6808,2.6909,2.6909,2.6909,0,0,2.6904,2.6912,2.6903,2.69,2.6903,2.6889,2.6928,2.6912,2.6901,2.6937,2.6912,2.6917,2.6918,2.6885,2.6871,2.6887,2.6812,2.684,2.6835,2.6832,2.6812,2.6803,2.6794,2.6906,2.6907,2.6907,0,0,2.6841,2.6847,2.6823,2.6826,2.683,2.6843,2.6837,2.6847,2.6852,2.6829,2.6855,2.6842,2.6822,2.6821,2.6818,2.6756,2.6775,2.6753,2.6712,2.6691,2.6683,2.6676,2.6651,2.6643,2.6748,2.6748,2.6748,0,2.6801,2.6783,2.6808,2.679,2.6787,2.6821,2.6796,2.6797,2.6797,2.6793,2.6812,2.6788,2.6791,2.6758,2.6743,2.674,2.6733,2.6751,2.6683,2.6676,2.6669,2.6646,2.6637,2.6745,2.6745,2.6745,2.6746,0,2.6734,2.672,2.67,2.6702,2.6697,2.6675,2.6695,2.6687,2.6703,2.6713,2.6688,2.6694,2.6685,2.6679,2.6694,2.6648,2.6657,2.6679,2.671,2.6656,2.6635,2.6627,2.674,2.6742,2.6742,2.6743,0,0,2.6636,2.6653,2.6645,2.6646,2.6654,2.6643,2.6623,2.6617,2.6609,2.6609,2.659,2.6574,2.6594,2.6591,2.6606,2.6588,2.6536,2.6612,2.6612,2.6595,2.6483,2.6464,2.6454,2.655,2.6548,2.6547,2.6482,0,2.6574,2.6541,2.6563,2.6526,2.6514,2.6547,2.6529,2.6531,2.654,2.653,2.654,2.6527,2.6556,2.6554,2.6537,2.6546,2.6513,2.6551,2.6531,2.653,2.6527,2.6443,2.6424,2.6362,2.6474,2.6473,2.6472,0,2.6496,2.6494,2.6456,2.6467,2.6462,2.6446,2.6442,2.6432,2.6435,2.6443,2.644,2.646,2.6439,2.6473,2.6443,2.6468,2.6462,2.6465,2.6463,2.6459,2.6495,2.6435,2.6343,2.6332,2.6459,2.646,2.6461,0,2.6426,2.6414,2.6389,2.6389,2.6402,2.6389,2.6394,2.6399,2.6393,2.639,2.6386,2.6379,2.6375,2.6368,2.6385,2.6409,2.6353,2.6388,2.6356,2.6356,2.6341,2.6341,2.6244,2.6341,2.6341,2.6341,2.6342,0,2.6352,2.6327,2.6358,2.6342,2.6315,2.6341,2.6312,2.632,2.6324,2.631,2.6339,2.6324,2.6349,2.6336,2.6349,2.6322,2.632,2.6324,2.6327,2.632,2.6319,2.6313,2.6317,2.6339,2.6339,2.634,2.634,0,2.6268,2.6288,2.6263,2.6278,2.6281,2.626,2.6272,2.6257,2.627,2.6251,2.6248,2.6266,2.6253,2.627,2.6258,2.6267,2.6228,2.624,2.6227,2.623,2.6196,2.6198,2.609,2.6076,2.6185,2.6184,2.6183,0,2.6218,2.6199,2.6213,2.6206,2.6209,2.6198,2.6193,2.6218,2.6212,2.6214,2.6199,2.6189,2.6181,2.6158,2.6169,2.616,2.6169,2.6132,2.6168,2.6161,2.6165,2.6165,2.6162,2.6124,2.6122,2.6121,2.612,0,2.6126,2.6138,2.6131,2.6127,2.6121,2.6119,2.6119,2.6111,2.6137,2.6128,2.6116,2.6111,2.61,2.6088,2.6082,2.6085,2.6105,2.611,2.6101,2.6092,2.6085,2.6086,2.6205,2.6111,2.6112,2.6113,2.6113,2.6114,2.6056,2.6041,2.6048,2.6039,2.6042,2.6042,2.6029,2.604,2.6031,2.6025,2.604,2.6024,2.6027,2.6021,2.6022,2.6008,2.6024,2.6012,2.6009,2.6005,2.5999,2.609,2.6007,2.6008,2.6008,2.6008,2.6008,0,2.5964,2.5971,2.5962,2.5962,2.5955,2.5979,2.598,2.5971,2.5957,2.596,2.5953,2.5938,2.5927,2.5938,2.5929,2.5916,2.5925,2.5912,2.5912,2.5912,2.5986,2.5993,2.5905,2.5905,2.5905,2.5905,2.5905,2.5905,2.5915,2.589,2.5902,2.5879,2.5886,2.5871,2.5869,2.5869,2.5871,2.5853,2.5845,2.5854,2.5859,2.5851,2.5841,2.5845,2.5838,2.5822,2.5828,2.5897,2.5907,2.5916,2.5923,2.5821,2.5821,2.5754,2.5753,2.5753]}]]